logo
Search for airport 
image banner adimage banner adimage banner ad
image banner ad

EHDEV - De Voorst

Located in , Netherlands

ICAO - , IATA -

Data provided by Airmate  

General information

Coordinates: N52°41'5" E5°54'41"
Elevation is 4 feet MSL.
 
View others Airports in Gelderland

Operational data

Special qualification required
Current time UTC:
Current local time:
Weather at : EHLE - Lelystad/Lelystad ( 37 km )
METAR: EHLE 150855Z AUTO 21018KT 180V260 9999 SCT021/// BKN025/// BKN029/// 11/06 Q1005 NOSIG
TAF: TAF EHLE 150447Z 1506/1612 21010KT CAVOK BECMG 1507/1510 22018G30KT SCT018 BKN025 TEMPO 1509/1513 24022G35KT 4000 SHRA RA SCT015CB BKN020 TEMPO 1512/1514 30025G42KT 2000 +SHRAGS TSRAGS SCT008 BKN012 BKN015CB BECMG 1513/1515 29018G30KT SCT025 TEMPO 1516/1522 29022G35KT 4000 SHRAGS SCT018CB BKN022 BECMG 1521/1523 27018G28KT FEW040 TEMPO 1601/1606 6000 SHRA -SHRAGS SCT015CB BKN020 BECMG 1606/1609 30012KT
View NOTAMs / SUP AIP / TFR affecting this airport [VIEW]
Communications frequencies: [VIEW]

Runways:

RWY identifierQFULength (ft)Width (ft)SurfaceLDA (ft)
0868°3281164GRASS
26248°3281164GRASS

Airport contact information

Address: Netherlands

Satellite view of EHDEV